Home > Weather > Ashkelon > Past weeks

Flag for Israel Past Weather in Ashkelon, Israel — Yesterday and Last 2 Weeks

Now
90 °F

Passing clouds.


Feels Like: 98 °F
Forecast: 78 / 86 °F
Wind: 8 mph from West

Location: Ben Gurion International Airport

Current Time: Jul 31, 2016 at 12:42:06 PM

Latest Report: Jul 31, 2016 at 12:20 PM


Visibility: N/A

Pressure: 29.71 "Hg

Humidity: 59%

Dew Point: 73 °F

Location of AshkelonLocation

Past Weather in Ashkelon — Graph

°F

Ashkelon Temperature Yesterday

Maximum temperature yesterday: 90 °F (at 12:20 PM)
Minimum temperature yesterday: 79 °F (at 4:50 AM)
Average temperature yesterday: 84 °F

High & Low Weather Summary for the Past Weeks

 TemperatureHumidityPressure
High91 °F (Jul 21, 1:50 PM)89% (Jul 31, 5:20 AM)29.89 "Hg (Jul 31, 5:20 AM)
Low73 °F (Jul 22, 5:20 AM)20% (Jul 26, 8:50 PM)29.65 "Hg (Jul 19, 11:20 AM)
Average83 °F65%29.74 "Hg
* Reported Jul 16 11:20 AM — Jul 31 11:20 AM, Ashkelon, Weather by CustomWeather, © 2016

Note: Actual official high and low records may vary slightly from our data, if they occured in-between our weather recording intervals... More about our weather records

Advertising

Ashkelon Weather History for the Previous 24 Hours

Scroll right to see more
 ConditionsComfort  
Time TempWeatherWind HumidityBarometerVisibility
11:20 AM
Sun, Jul 31
90 °FPassing clouds.6 mph55%29.71 "HgN/A
10:50 AM90 °FPassing clouds.5 mph52%29.71 "HgN/A
10:20 AM88 °FPassing clouds.3 mph55%29.71 "HgN/A
9:50 AM86 °FScattered clouds.3 mph59%29.71 "HgN/A
9:20 AM84 °FScattered clouds.3 mph66%29.71 "HgN/A
8:50 AM82 °FScattered clouds.3 mph70%29.71 "HgN/A
8:20 AM82 °FScattered clouds.5 mph70%29.71 "HgN/A
7:50 AM81 °FPassing clouds.6 mph74%29.71 "Hg6 mi
7:20 AM79 °FPassing clouds.6 mph79%29.71 "Hg6 mi
6:50 AM79 °FPassing clouds.5 mph79%29.71 "Hg6 mi
6:20 AM79 °FPassing clouds.5 mph79%29.71 "Hg6 mi
5:50 AM79 °FPassing clouds.2 mph79%29.68 "Hg6 mi
5:20 AM77 °FPassing clouds.1 mph89%29.68 "HgN/A
4:50 AM77 °FPassing clouds.2 mph83%29.68 "HgN/A
4:20 AM79 °FPassing clouds.5 mph84%29.68 "HgN/A
3:50 AM79 °FPassing clouds.6 mph84%29.68 "HgN/A
3:20 AM79 °FPassing clouds.5 mph79%29.68 "HgN/A
2:50 AM79 °FPassing clouds.5 mph79%29.68 "HgN/A
2:20 AM79 °FPassing clouds.5 mph79%29.71 "HgN/A
1:50 AM79 °FPassing clouds.5 mph79%29.71 "HgN/A
1:20 AM81 °FPassing clouds.6 mph79%29.71 "HgN/A
12:50 AM81 °FPassing clouds.2 mph79%29.71 "HgN/A
12:20 AM81 °FClear.2 mph79%29.71 "Hg10 mi
11:50 PM
Sat, Jul 30
81 °FPassing clouds.3 mph79%29.71 "HgN/A
11:20 PM81 °FPassing clouds.3 mph79%29.71 "HgN/A
10:50 PM82 °FPassing clouds.3 mph74%29.71 "HgN/A
10:20 PM82 °FPassing clouds.3 mph74%29.71 "HgN/A
9:50 PM82 °FPassing clouds.3 mph74%29.71 "HgN/A
9:20 PM82 °FClear.5 mph74%29.71 "Hg10 mi
8:50 PM82 °FClear.5 mph74%29.68 "Hg10 mi
8:20 PM82 °FSunny.6 mph74%29.68 "Hg10 mi
7:50 PM84 °FPassing clouds.8 mph70%29.68 "HgN/A
7:20 PM84 °FPassing clouds.10 mph70%29.68 "HgN/A
6:50 PM86 °FPassing clouds.9 mph66%29.68 "HgN/A
6:20 PM86 °FPassing clouds.10 mph66%29.65 "HgN/A
5:50 PM86 °FPassing clouds.10 mph62%29.65 "HgN/A
5:20 PM88 °FPassing clouds.10 mph59%29.65 "HgN/A
4:50 PM88 °FPassing clouds.12 mph59%29.65 "HgN/A
4:20 PM88 °FPassing clouds.10 mph59%29.65 "HgN/A
3:50 PM88 °FPassing clouds.13 mph59%29.65 "HgN/A
3:20 PM90 °FPassing clouds.14 mph55%29.65 "HgN/A
2:50 PM90 °FPassing clouds.14 mph52%29.68 "HgN/A
2:20 PM90 °FPassing clouds.13 mph55%29.68 "HgN/A
1:50 PM90 °FPassing clouds.10 mph55%29.68 "HgN/A
1:20 PM90 °FPassing clouds.8 mph55%29.68 "HgN/A
12:50 PM90 °FPassing clouds.10 mph55%29.68 "HgN/A
12:20 PM90 °FPassing clouds.9 mph55%29.68 "HgN/A
Weather by CustomWeather, © 2016

See weather overviewHow to use our weather pages